Flag for South Africa Weather past 2 weeks in Port Elizabeth, South Africa

Now
63 °F

Sunny.


Feels Like: 63 °F
Forecast: 49 / 60 °F
Wind: 21 mph from West

Location: Port Elizabeth Airport

Current Time: Jul 8, 2015 at 9:33:57 AM

Latest Report: Jul 8, 2015 at 9:00 AM


Visibility: 10 mi

Pressure: 30.09 "Hg

Humidity: 59%

Dew point: 48 °F

Location of Port ElizabethLocation

Historic Weather in Port Elizabeth — Graph

°F

Port Elizabeth temperature yesterday

Maximum temperature yesterday: 73 °F (at 2:00 PM)
Minimum temperature yesterday: 57 °F (at 11:00 PM)
Average temperature yesterday: 63 °F

Past Weeks' High & Low Weather Summary

 TemperatureHumidityPressure
High73 °F (Jul 7, 2:00 PM)100% (Jun 30, 7:55 AM)30.48 "Hg (Jun 30, 7:55 AM)
Low43 °F (Jun 30, 6:00 AM)36% (Jun 24, 11:57 AM)29.80 "Hg (Jun 24, 1:01 AM)
Average58 °F76%30.20 "Hg
* Reported Jun 23 8:00 AM — Jul 8 8:00 AM, Port Elizabeth, Weather by CustomWeather, © 2015

Note: Actual official high and low records may vary slightly from our data, if they occured in-between our weather recording intervals... More about our weather records

Advertising

Port Elizabeth weather history for previous 24 hours

 ConditionsComfort  
Time TempWeatherWind HumidityBarometerVisibility
8:00 AM
Wed, Jul 8
61 °FSunny.22 mph63%30.07 "Hg10 mi
7:54 AM61 °FSunny.23 mph68%30.07 "Hg10 mi
7:00 AM61 °FSunny.24 mph68%30.04 "Hg10 mi
6:00 AM63 °FClear.30 mph59%30.04 "Hg10 mi
5:03 AM64 °FClear.35 mph73%30.01 "Hg10 mi
4:00 AM68 °FClear.28 mph60%29.98 "Hg10 mi
3:00 AM70 °FPassing clouds.6 mph43%29.92 "HgN/A
2:00 AM68 °FPassing clouds.9 mph46%29.95 "HgN/A
1:00 AM70 °FClear.7 mph43%29.95 "Hg10 mi
12:00 AM63 °FClear.7 mph64%29.98 "Hg10 mi
11:00 PM
Tue, Jul 7
57 °FClear.2 mph77%29.98 "Hg10 mi
10:00 PM61 °FClear.6 mph77%30.01 "Hg10 mi
9:00 PM63 °FClear.5 mph73%30.04 "Hg10 mi
8:00 PM64 °FClear.9 mph73%30.04 "Hg10 mi
7:00 PM64 °FClear.9 mph73%30.04 "Hg10 mi
6:00 PM66 °FClear.13 mph68%30.04 "Hg10 mi
5:00 PM66 °FClear.10 mph73%30.07 "Hg10 mi
4:00 PM68 °FSunny.14 mph64%30.09 "Hg10 mi
3:00 PM72 °FSunny.14 mph57%30.09 "Hg10 mi
2:00 PM73 °FSunny.15 mph50%30.12 "Hg10 mi
1:00 PM68 °FSunny.15 mph69%30.15 "Hg10 mi
12:00 PM64 °FSunny.16 mph73%30.21 "Hg10 mi
11:00 AM63 °FSunny.16 mph77%30.24 "Hg10 mi
10:00 AM61 °FSunny.16 mph77%30.24 "Hg10 mi
9:00 AM61 °FSunny.17 mph77%30.27 "Hg10 mi
Weather by CustomWeather, © 2015

See weather overviewHow to use our weather pages